When you browse on this site, cookies collect data to enhance your experience and personalize the content and advertising you see.
Visit our Privacy Policy to learn more. By continuing to use the site, you agree to this use of cookies and data.
  • In Romania
  • List of Countries
  • For 7 days
  • Water Temperature
  • Satellite Maps
  • Weather Map
  • Weather Widgets
  • user-avatar
    Login

    Hourly Weather Borzhomi

    Today, 24 May, Friday

    Time Temperature Precipitation Wind Pressure Humidity
    00:00 +12°C° 0.2 mm 1 mps 666 mmHg 95%
    01:00 +12°C° 0.1 mm 1 mps 666 mmHg 94%
    02:00 +12°C° 0.1 mm 1 mps 665 mmHg 94%
    03:00 +11°C° 0 mm 1 mps 665 mmHg 94%
    04:00 +12°C° 0 mm 1 mps 665 mmHg 92%
    05:00 +12°C° 0 mm 1 mps 665 mmHg 90%
    06:00 +13°C° 0 mm 1 mps 665 mmHg 89%
    07:00 +15°C° 0 mm 1 mps 665 mmHg 79%
    08:00 +19°C° 0 mm 1 mps 666 mmHg 68%
    09:00 +22°C° 0 mm 1 mps 666 mmHg 57%
    10:00 +23°C° 0.1 mm 2 mps 666 mmHg 55%
    11:00 +24°C° 0.1 mm 2 mps 666 mmHg 52%
    12:00 +24°C° 0.1 mm 2 mps 666 mmHg 50%
    13:00 +25°C° 0.4 mm 2 mps 666 mmHg 50%
    14:00 +25°C° 0.4 mm 2 mps 666 mmHg 51%
    15:00 +25°C° 0.4 mm 2 mps 666 mmHg 52%
    16:00 +24°C° 0.3 mm 2 mps 666 mmHg 56%
    17:00 +23°C° 0.3 mm 1 mps 666 mmHg 61%
    18:00 +22°C° 0.3 mm 1 mps 666 mmHg 65%
    19:00 +20°C° 0.1 mm 1 mps 666 mmHg 70%
    20:00 +18°C° 0.1 mm 1 mps 665 mmHg 74%
    21:00 +15°C° 0.1 mm 1 mps 665 mmHg 78%
    22:00 +15°C° 0.5 mm 2 mps 665 mmHg 81%
    23:00 +15°C° 0.5 mm 2 mps 666 mmHg 84%

    Tomorrow, 25 May, Saturday

    Time Temperature Precipitation Wind Pressure Humidity
    00:00 +15°C° 0.5 mm 2 mps 666 mmHg 86%
    01:00 +14°C° 0.1 mm 2 mps 666 mmHg 86%
    02:00 +14°C° 0.1 mm 2 mps 665 mmHg 85%
    03:00 +14°C° 0.1 mm 2 mps 665 mmHg 85%
    04:00 +14°C° 0.1 mm 2 mps 665 mmHg 83%
    05:00 +15°C° 0.1 mm 2 mps 665 mmHg 82%
    06:00 +15°C° 0.1 mm 2 mps 665 mmHg 80%
    07:00 +17°C° 0 mm 3 mps 665 mmHg 74%
    08:00 +18°C° 0 mm 3 mps 665 mmHg 69%
    09:00 +20°C° 0 mm 3 mps 665 mmHg 63%
    10:00 +21°C° 0.1 mm 2 mps 665 mmHg 63%
    11:00 +21°C° 0.1 mm 2 mps 665 mmHg 64%
    12:00 +23°C° 0.1 mm 2 mps 665 mmHg 64%
    13:00 +23°C° 0.5 mm 2 mps 665 mmHg 64%
    14:00 +23°C° 0.5 mm 2 mps 666 mmHg 63%
    15:00 +24°C° 0.5 mm 2 mps 666 mmHg 63%
    16:00 +20°C° 1.2 mm 2 mps 665 mmHg 73%
    17:00 +18°C° 1.2 mm 2 mps 665 mmHg 83%
    18:00 +16°C° 1.2 mm 3 mps 664 mmHg 93%
    19:00 +15°C° 1.4 mm 2 mps 664 mmHg 95%
    20:00 +14°C° 1.4 mm 1 mps 665 mmHg 96%
    21:00 +13°C° 1.4 mm 1 mps 665 mmHg 97%
    22:00 +13°C° 0 mm 1 mps 665 mmHg 96%
    23:00 +12°C° 0 mm 1 mps 665 mmHg 95%

    Day after tomorrow, 26 May, Sunday

    Time Temperature Precipitation Wind Pressure Humidity
    00:00 +12°C° 0 mm 1 mps 665 mmHg 94%
    01:00 +11°C° 0 mm 1 mps 665 mmHg 94%
    02:00 +11°C° 0 mm 1 mps 665 mmHg 93%
    03:00 +11°C° 0 mm 1 mps 665 mmHg 93%
    04:00 +12°C° 0 mm 1 mps 665 mmHg 91%
    05:00 +12°C° 0 mm 1 mps 665 mmHg 90%
    06:00 +13°C° 0 mm 1 mps 666 mmHg 89%
    07:00 +15°C° 0.1 mm 1 mps 666 mmHg 81%
    08:00 +19°C° 0.1 mm 1 mps 666 mmHg 72%
    09:00 +21°C° 0.1 mm 1 mps 667 mmHg 64%
    10:00 +22°C° 0.3 mm 1 mps 667 mmHg 62%
    11:00 +21°C° 0.3 mm 2 mps 667 mmHg 59%
    12:00 +23°C° 0.3 mm 2 mps 667 mmHg 57%
    13:00 +21°C° 0.8 mm 2 mps 666 mmHg 62%
    14:00 +20°C° 0.8 mm 3 mps 666 mmHg 67%
    15:00 +19°C° 0.8 mm 3 mps 666 mmHg 71%
    16:00 +18°C° 0.2 mm 3 mps 666 mmHg 77%
    17:00 +17°C° 0.2 mm 3 mps 666 mmHg 83%
    18:00 +16°C° 0.2 mm 2 mps 666 mmHg 89%
    19:00 +15°C° 0.1 mm 2 mps 666 mmHg 92%
    20:00 +14°C° 0.1 mm 1 mps 667 mmHg 95%
    21:00 +13°C° 0.1 mm 1 mps 667 mmHg 97%
    22:00 +13°C° 0 mm 1 mps 667 mmHg 98%
    23:00 +12°C° 0 mm 1 mps 668 mmHg 98%

    27 May, Monday

    Time Temperature Precipitation Wind Pressure Humidity
    00:00 +12°C° 0 mm 1 mps 668 mmHg 98%
    01:00 +12°C° 0 mm 1 mps 668 mmHg 98%
    02:00 +11°C° 0 mm 1 mps 668 mmHg 97%
    03:00 +11°C° 0 mm 1 mps 668 mmHg 97%
    04:00 +11°C° 0 mm 1 mps 668 mmHg 95%
    05:00 +12°C° 0 mm 1 mps 668 mmHg 94%
    06:00 +12°C° 0 mm 1 mps 668 mmHg 92%
    07:00 +14°C° 0 mm 1 mps 669 mmHg 81%
    08:00 +16°C° 0 mm 1 mps 669 mmHg 71%
    09:00 +20°C° 0 mm 1 mps 670 mmHg 60%
    10:00 +20°C° 0 mm 2 mps 670 mmHg 55%
    11:00 +21°C° 0 mm 2 mps 670 mmHg 50%
    12:00 +23°C° 0 mm 2 mps 670 mmHg 44%
    13:00 +22°C° 0.1 mm 3 mps 670 mmHg 46%
    14:00 +21°C° 0.1 mm 3 mps 670 mmHg 48%
    15:00 +21°C° 0.1 mm 3 mps 669 mmHg 49%
    16:00 +20°C° 0.1 mm 3 mps 669 mmHg 56%
    17:00 +19°C° 0.1 mm 2 mps 669 mmHg 62%
    18:00 +18°C° 0.1 mm 2 mps 669 mmHg 69%
    19:00 +16°C° 0 mm 1 mps 669 mmHg 77%
    20:00 +14°C° 0 mm 1 mps 669 mmHg 86%
    21:00 +12°C° 0 mm 1 mps 670 mmHg 94%
    22:00 +12°C° 0 mm 1 mps 670 mmHg 93%
    23:00 +11°C° 0 mm 1 mps 670 mmHg 92%

    28 May, Tuesday

    Time Temperature Precipitation Wind Pressure Humidity
    00:00 +11°C° 0 mm 1 mps 670 mmHg 91%
    01:00 +11°C° 0 mm 1 mps 669 mmHg 88%
    02:00 +11°C° 0 mm 1 mps 669 mmHg 85%
    03:00 +9°C° 0 mm 2 mps 669 mmHg 83%
    04:00 +10°C° 0 mm 2 mps 669 mmHg 80%
    05:00 +12°C° 0 mm 2 mps 670 mmHg 77%
    06:00 +12°C° 0 mm 2 mps 670 mmHg 74%
    07:00 +15°C° 0 mm 2 mps 670 mmHg 64%
    08:00 +18°C° 0 mm 2 mps 671 mmHg 55%
    09:00 +21°C° 0 mm 2 mps 672 mmHg 45%
    10:00 +24°C° 0 mm 2 mps 672 mmHg 42%
    11:00 +25°C° 0 mm 2 mps 672 mmHg 40%
    12:00 +26°C° 0 mm 2 mps 672 mmHg 37%
    13:00 +27°C° 0 mm 2 mps 671 mmHg 38%
    14:00 +27°C° 0 mm 2 mps 671 mmHg 38%
    15:00 +27°C° 0 mm 2 mps 671 mmHg 39%
    16:00 +25°C° 0 mm 2 mps 671 mmHg 46%
    17:00 +24°C° 0 mm 2 mps 671 mmHg 53%
    18:00 +23°C° 0 mm 2 mps 670 mmHg 60%
    19:00 +20°C° 0 mm 2 mps 670 mmHg 68%
    20:00 +17°C° 0 mm 2 mps 670 mmHg 77%
    21:00 +15°C° 0 mm 2 mps 670 mmHg 86%
    22:00 +14°C° 0 mm 2 mps 670 mmHg 85%
    23:00 +14°C° 0 mm 2 mps 670 mmHg 85%

    29 May, Wednesday

    Time Temperature Precipitation Wind Pressure Humidity
    00:00 +13°C° 0 mm 2 mps 670 mmHg 85%
    01:00 +13°C° 0 mm 2 mps 670 mmHg 83%
    02:00 +13°C° 0 mm 2 mps 669 mmHg 82%
    03:00 +12°C° 0 mm 2 mps 669 mmHg 80%
    04:00 +13°C° 0 mm 2 mps 669 mmHg 77%
    05:00 +14°C° 0 mm 2 mps 669 mmHg 75%
    06:00 +14°C° 0 mm 2 mps 670 mmHg 73%
    07:00 +17°C° 0 mm 2 mps 670 mmHg 64%
    08:00 +20°C° 0 mm 2 mps 670 mmHg 55%
    09:00 +24°C° 0 mm 2 mps 671 mmHg 47%
    10:00 +25°C° 0 mm 2 mps 671 mmHg 44%
    11:00 +27°C° 0 mm 2 mps 671 mmHg 41%
    12:00 +28°C° 0 mm 2 mps 671 mmHg 38%
    13:00 +28°C° 0 mm 2 mps 671 mmHg 38%
    14:00 +28°C° 0 mm 2 mps 670 mmHg 38%
    15:00 +29°C° 0 mm 2 mps 670 mmHg 38%
    16:00 +27°C° 0 mm 2 mps 670 mmHg 45%
    17:00 +26°C° 0 mm 2 mps 670 mmHg 52%
    18:00 +25°C° 0 mm 2 mps 670 mmHg 59%
    19:00 +21°C° 0 mm 2 mps 669 mmHg 68%
    20:00 +19°C° 0 mm 2 mps 669 mmHg 76%
    21:00 +16°C° 0 mm 1 mps 669 mmHg 85%
    22:00 +16°C° 0 mm 2 mps 669 mmHg 85%
    23:00 +15°C° 0 mm 2 mps 669 mmHg 84%
    Show more